Year,Month,Day,Hour,Minute,Value (Times are PST for temperature in C)
2017,03,30,00,00,6.60
2017,03,30,00,01,6.50
2017,03,30,00,02,6.50
2017,03,30,00,03,6.50
2017,03,30,00,04,6.50
2017,03,30,00,05,6.50
2017,03,30,00,06,6.50
2017,03,30,00,07,6.40
2017,03,30,00,08,6.40
2017,03,30,00,09,6.40
2017,03,30,00,10,6.40
2017,03,30,00,11,6.40
2017,03,30,00,12,6.40
2017,03,30,00,13,6.40
2017,03,30,00,14,6.40
2017,03,30,00,15,6.40
2017,03,30,00,16,6.40
2017,03,30,00,17,6.40
2017,03,30,00,18,6.40
2017,03,30,00,19,6.40
2017,03,30,00,20,6.40
2017,03,30,00,21,6.40
2017,03,30,00,22,6.40
2017,03,30,00,23,6.40
2017,03,30,00,24,6.40
2017,03,30,00,25,6.40
2017,03,30,00,26,6.40
2017,03,30,00,27,6.50
2017,03,30,00,28,6.50
2017,03,30,00,29,6.50
2017,03,30,00,30,6.50
2017,03,30,00,31,6.50
2017,03,30,00,32,6.40
2017,03,30,00,33,6.40
2017,03,30,00,34,6.40
2017,03,30,00,35,6.50
2017,03,30,00,36,6.50
2017,03,30,00,37,6.50
2017,03,30,00,38,6.50
2017,03,30,00,39,6.60
2017,03,30,00,40,6.60
2017,03,30,00,41,6.60
2017,03,30,00,42,6.60
2017,03,30,00,43,6.60
2017,03,30,00,44,6.60
2017,03,30,00,45,6.70
2017,03,30,00,46,6.70
2017,03,30,00,47,6.70
2017,03,30,00,48,6.70
2017,03,30,00,49,6.70
2017,03,30,00,50,6.70
2017,03,30,00,51,6.70
2017,03,30,00,52,6.70
2017,03,30,00,53,6.70
2017,03,30,00,54,6.70
2017,03,30,00,55,6.70
2017,03,30,00,56,6.70
2017,03,30,00,57,6.80
2017,03,30,00,58,6.80
2017,03,30,00,59,6.80
2017,03,30,01,00,6.80
2017,03,30,01,01,6.80
2017,03,30,01,02,6.80
2017,03,30,01,03,6.80
2017,03,30,01,04,6.80
2017,03,30,01,05,6.80
2017,03,30,01,06,6.80
2017,03,30,01,07,6.80
2017,03,30,01,08,6.80
2017,03,30,01,09,6.80
2017,03,30,01,10,6.80
2017,03,30,01,11,6.80
2017,03,30,01,12,6.80
2017,03,30,01,13,6.80
2017,03,30,01,14,6.80
2017,03,30,01,15,6.80
2017,03,30,01,16,6.80
2017,03,30,01,17,6.70
2017,03,30,01,18,6.70
2017,03,30,01,19,6.70
2017,03,30,01,20,6.70
2017,03,30,01,21,6.70
2017,03,30,01,22,6.70
2017,03,30,01,23,6.70
2017,03,30,01,24,6.70
2017,03,30,01,25,6.70
2017,03,30,01,26,6.70
2017,03,30,01,27,6.70
2017,03,30,01,28,6.70
2017,03,30,01,29,6.70
2017,03,30,01,30,6.70
2017,03,30,01,31,6.70
2017,03,30,01,32,6.70
2017,03,30,01,33,6.70
2017,03,30,01,34,6.70
2017,03,30,01,35,6.70
2017,03,30,01,36,6.70
2017,03,30,01,37,6.70
2017,03,30,01,38,6.70
2017,03,30,01,39,6.70
2017,03,30,01,40,6.70
2017,03,30,01,41,6.70
2017,03,30,01,42,6.70
2017,03,30,01,43,6.70
2017,03,30,01,44,6.70
2017,03,30,01,45,6.70
2017,03,30,01,46,6.70
2017,03,30,01,47,6.70
2017,03,30,01,48,6.70
2017,03,30,01,49,6.70
2017,03,30,01,50,6.70
2017,03,30,01,51,6.70
2017,03,30,01,52,6.70
2017,03,30,01,53,6.70
2017,03,30,01,54,6.70
2017,03,30,01,55,6.70
2017,03,30,01,56,6.70
2017,03,30,01,57,6.70
2017,03,30,01,58,6.70
2017,03,30,01,59,6.70
2017,03,30,02,00,6.80
2017,03,30,02,01,6.70
2017,03,30,02,02,6.80
2017,03,30,02,03,6.70
2017,03,30,02,04,6.80
2017,03,30,02,05,6.80
2017,03,30,02,06,6.70
2017,03,30,02,07,6.70
2017,03,30,02,08,6.70
2017,03,30,02,09,6.70
2017,03,30,02,10,6.70
2017,03,30,02,11,6.70
2017,03,30,02,12,6.70
2017,03,30,02,13,6.70
2017,03,30,02,14,6.70
2017,03,30,02,15,6.70
2017,03,30,02,16,6.70
2017,03,30,02,17,6.70
2017,03,30,02,18,6.70
2017,03,30,02,19,6.70
2017,03,30,02,20,6.70
2017,03,30,02,21,6.60
2017,03,30,02,22,6.70
2017,03,30,02,23,6.70
2017,03,30,02,24,6.60
2017,03,30,02,25,6.60
2017,03,30,02,26,6.60
2017,03,30,02,27,6.60
2017,03,30,02,28,6.60
2017,03,30,02,29,6.60
2017,03,30,02,30,6.60
2017,03,30,02,31,6.60
2017,03,30,02,32,6.50
2017,03,30,02,33,6.60
2017,03,30,02,34,6.50
2017,03,30,02,35,6.50
2017,03,30,02,36,6.50
2017,03,30,02,37,6.60
2017,03,30,02,38,6.50
2017,03,30,02,39,6.60
2017,03,30,02,40,6.60
2017,03,30,02,41,6.60
2017,03,30,02,42,6.60
2017,03,30,02,43,6.60
2017,03,30,02,44,6.60
2017,03,30,02,45,6.60
2017,03,30,02,46,6.60
2017,03,30,02,47,6.50
2017,03,30,02,48,6.50
2017,03,30,02,49,6.50
2017,03,30,02,50,6.50
2017,03,30,02,51,6.50
2017,03,30,02,52,6.50
2017,03,30,02,53,6.50
2017,03,30,02,54,6.50
2017,03,30,02,55,6.50
2017,03,30,02,56,6.50
2017,03,30,02,57,6.50
2017,03,30,02,58,6.50
2017,03,30,02,59,6.50
2017,03,30,03,00,6.60
2017,03,30,03,01,6.60
2017,03,30,03,02,6.60
2017,03,30,03,03,6.60
2017,03,30,03,04,6.60
2017,03,30,03,05,6.60
2017,03,30,03,06,6.50
2017,03,30,03,07,6.50
2017,03,30,03,08,6.50
2017,03,30,03,09,6.40
2017,03,30,03,10,6.40
2017,03,30,03,11,6.40
2017,03,30,03,12,6.30
2017,03,30,03,13,6.30
2017,03,30,03,14,6.30
2017,03,30,03,15,6.30
2017,03,30,03,16,6.20
2017,03,30,03,17,6.20
2017,03,30,03,18,6.20
2017,03,30,03,19,6.20
2017,03,30,03,20,6.20
2017,03,30,03,21,6.20
2017,03,30,03,22,6.20
2017,03,30,03,23,6.20
2017,03,30,03,24,6.20
2017,03,30,03,25,6.20
2017,03,30,03,26,6.20
2017,03,30,03,27,6.20
2017,03,30,03,28,6.20
2017,03,30,03,29,6.20
2017,03,30,03,30,6.10
2017,03,30,03,31,6.10
2017,03,30,03,32,6.10
2017,03,30,03,33,6.10
2017,03,30,03,34,6.10
2017,03,30,03,35,6.10
2017,03,30,03,36,6.10
2017,03,30,03,37,6.10
2017,03,30,03,38,6.10
2017,03,30,03,39,6.10
2017,03,30,03,40,6.10
2017,03,30,03,41,6.10
2017,03,30,03,42,6.10
2017,03,30,03,43,6.10
2017,03,30,03,44,6.10
2017,03,30,03,45,6.10
2017,03,30,03,46,6.10
2017,03,30,03,47,6.10
2017,03,30,03,48,6.10
2017,03,30,03,49,6.10
2017,03,30,03,50,6.00
2017,03,30,03,51,6.00
2017,03,30,03,52,6.00
2017,03,30,03,53,6.00
2017,03,30,03,54,5.90
2017,03,30,03,55,5.90
2017,03,30,03,56,5.90
2017,03,30,03,57,5.90
2017,03,30,03,58,5.90
2017,03,30,03,59,5.90
2017,03,30,04,00,5.90
2017,03,30,04,01,5.90
2017,03,30,04,02,5.80
2017,03,30,04,03,5.80
2017,03,30,04,04,5.80
2017,03,30,04,05,5.80
2017,03,30,04,06,5.80
2017,03,30,04,07,5.80
2017,03,30,04,08,5.80
2017,03,30,04,09,5.80
2017,03,30,04,10,5.80
2017,03,30,04,11,5.80
2017,03,30,04,12,5.80
2017,03,30,04,13,5.70
2017,03,30,04,14,5.80
2017,03,30,04,15,5.80
2017,03,30,04,16,5.70
2017,03,30,04,17,5.70
2017,03,30,04,18,5.70
2017,03,30,04,19,5.70
2017,03,30,04,20,5.70
2017,03,30,04,21,5.70
2017,03,30,04,22,5.70
2017,03,30,04,23,5.70
2017,03,30,04,24,5.70
2017,03,30,04,25,5.70
2017,03,30,04,26,5.70
2017,03,30,04,27,5.70
2017,03,30,04,28,5.70
2017,03,30,04,29,5.60
2017,03,30,04,30,5.60
2017,03,30,04,31,5.60
2017,03,30,04,32,5.60
2017,03,30,04,33,5.60
2017,03,30,04,34,5.60
2017,03,30,04,35,5.60
2017,03,30,04,36,5.60
2017,03,30,04,37,5.60
2017,03,30,04,38,5.60
2017,03,30,04,39,5.60
2017,03,30,04,40,5.60
2017,03,30,04,41,5.60
2017,03,30,04,42,5.60
2017,03,30,04,43,5.60
2017,03,30,04,44,5.60
2017,03,30,04,45,5.60
2017,03,30,04,46,5.60
2017,03,30,04,47,5.60
2017,03,30,04,48,5.60
2017,03,30,04,49,5.60
2017,03,30,04,50,5.60
2017,03,30,04,51,5.50
2017,03,30,04,52,5.50
2017,03,30,04,53,5.50
2017,03,30,04,54,5.50
2017,03,30,04,55,5.50
2017,03,30,04,56,5.50
2017,03,30,04,57,5.50
2017,03,30,04,58,5.50
2017,03,30,04,59,5.40
2017,03,30,05,00,5.40
2017,03,30,05,01,5.40
2017,03,30,05,02,5.40
2017,03,30,05,03,5.40
2017,03,30,05,04,5.40
2017,03,30,05,05,5.40
2017,03,30,05,06,5.40
2017,03,30,05,07,5.40
2017,03,30,05,08,5.40
2017,03,30,05,09,5.30
2017,03,30,05,10,5.30
2017,03,30,05,11,5.30
2017,03,30,05,12,5.30
2017,03,30,05,13,5.30
2017,03,30,05,14,5.30
2017,03,30,05,15,5.30
2017,03,30,05,16,5.30
2017,03,30,05,17,5.30
2017,03,30,05,18,5.30
2017,03,30,05,19,5.30
2017,03,30,05,20,5.30
2017,03,30,05,21,5.30
2017,03,30,05,22,5.20
2017,03,30,05,23,5.20
2017,03,30,05,24,5.20
2017,03,30,05,25,5.20
2017,03,30,05,26,5.20
2017,03,30,05,27,5.20
2017,03,30,05,28,5.20
2017,03,30,05,29,5.20
2017,03,30,05,30,5.10
2017,03,30,05,31,5.10
2017,03,30,05,32,5.10
2017,03,30,05,33,5.10
2017,03,30,05,34,5.10
2017,03,30,05,35,5.10
2017,03,30,05,36,5.10
2017,03,30,05,37,5.00
2017,03,30,05,38,5.00
2017,03,30,05,39,5.00
2017,03,30,05,40,5.00
2017,03,30,05,41,4.90
2017,03,30,05,42,4.90
2017,03,30,05,43,4.90
2017,03,30,05,44,4.90
2017,03,30,05,45,4.90
2017,03,30,05,46,4.90
2017,03,30,05,47,4.80
2017,03,30,05,48,4.80
2017,03,30,05,49,4.80
2017,03,30,05,50,4.80
2017,03,30,05,51,4.80
2017,03,30,05,52,4.80
2017,03,30,05,53,4.80
2017,03,30,05,54,4.80
2017,03,30,05,55,4.80
2017,03,30,05,56,4.80
2017,03,30,05,57,4.80
2017,03,30,05,58,4.80
2017,03,30,05,59,4.80
2017,03,30,06,00,4.80
2017,03,30,06,01,4.80
2017,03,30,06,02,4.80
2017,03,30,06,03,4.80
2017,03,30,06,04,4.80
2017,03,30,06,05,4.70
2017,03,30,06,06,4.70
2017,03,30,06,07,4.70
2017,03,30,06,08,4.70
2017,03,30,06,09,4.70
2017,03,30,06,10,4.70
2017,03,30,06,11,4.70
2017,03,30,06,12,4.70
2017,03,30,06,13,4.70
2017,03,30,06,14,4.60
2017,03,30,06,15,4.60
2017,03,30,06,16,4.60
2017,03,30,06,17,4.50
2017,03,30,06,18,4.50
2017,03,30,06,19,4.50
2017,03,30,06,20,4.50
2017,03,30,06,21,4.50
2017,03,30,06,22,4.50
2017,03,30,06,23,4.50
2017,03,30,06,24,4.50
2017,03,30,06,25,4.50
2017,03,30,06,26,4.50
2017,03,30,06,27,4.50
2017,03,30,06,28,4.50
2017,03,30,06,29,4.50
2017,03,30,06,30,4.50
2017,03,30,06,31,4.50
2017,03,30,06,32,4.50
2017,03,30,06,33,4.40
2017,03,30,06,34,4.40
2017,03,30,06,35,4.40
2017,03,30,06,36,4.30
2017,03,30,06,37,4.30
2017,03,30,06,38,4.30
2017,03,30,06,39,4.30
2017,03,30,06,40,4.30
2017,03,30,06,41,4.30
2017,03,30,06,42,4.30
2017,03,30,06,43,4.30
2017,03,30,06,44,4.30
2017,03,30,06,45,4.30
2017,03,30,06,46,4.30
2017,03,30,06,47,4.30
2017,03,30,06,48,4.30
2017,03,30,06,49,4.30
2017,03,30,06,50,4.30
2017,03,30,06,51,4.30
2017,03,30,06,52,4.40
2017,03,30,06,53,4.40
2017,03,30,06,54,4.40
2017,03,30,06,55,4.40
2017,03,30,06,56,4.40
2017,03,30,06,57,4.40
2017,03,30,06,58,4.40
2017,03,30,06,59,4.40
2017,03,30,07,00,4.40
2017,03,30,07,01,4.40
2017,03,30,07,02,4.40
2017,03,30,07,03,4.40
2017,03,30,07,04,4.40
2017,03,30,07,05,4.40
2017,03,30,07,06,4.40
2017,03,30,07,07,4.40
2017,03,30,07,08,4.40
2017,03,30,07,09,4.50
2017,03,30,07,10,4.40
2017,03,30,07,11,4.40
2017,03,30,07,12,4.40
2017,03,30,07,13,4.40
2017,03,30,07,14,4.40
2017,03,30,07,15,4.40
2017,03,30,07,16,4.40
2017,03,30,07,17,4.40
2017,03,30,07,18,4.40
2017,03,30,07,19,4.40
2017,03,30,07,20,4.40
2017,03,30,07,21,4.40
2017,03,30,07,22,4.40
2017,03,30,07,23,4.40
2017,03,30,07,24,4.40
2017,03,30,07,25,4.40
2017,03,30,07,26,4.40
2017,03,30,07,27,4.40
2017,03,30,07,28,4.30
2017,03,30,07,29,4.30
2017,03,30,07,30,4.30
2017,03,30,07,31,4.30
2017,03,30,07,32,4.30
2017,03,30,07,33,4.30
2017,03,30,07,34,4.30
2017,03,30,07,35,4.30
2017,03,30,07,36,4.30
2017,03,30,07,37,4.30
2017,03,30,07,38,4.30
2017,03,30,07,39,4.30
2017,03,30,07,40,4.40
2017,03,30,07,41,4.40
2017,03,30,07,42,4.40
2017,03,30,07,43,4.40
2017,03,30,07,44,4.40
2017,03,30,07,45,4.40
2017,03,30,07,46,4.50
2017,03,30,07,47,4.50
2017,03,30,07,48,4.50
2017,03,30,07,49,4.50
2017,03,30,07,50,4.50
2017,03,30,07,51,4.60
2017,03,30,07,52,4.60
2017,03,30,07,53,4.60
2017,03,30,07,54,4.60
2017,03,30,07,55,4.60
2017,03,30,07,56,4.60
2017,03,30,07,57,4.60
2017,03,30,07,58,4.70
2017,03,30,07,59,4.70
2017,03,30,08,00,4.70
2017,03,30,08,01,4.70
2017,03,30,08,02,4.70
2017,03,30,08,03,4.70
2017,03,30,08,04,4.70
2017,03,30,08,05,4.70
2017,03,30,08,06,4.70
2017,03,30,08,07,4.70
2017,03,30,08,08,4.80
2017,03,30,08,09,4.80
2017,03,30,08,10,4.80
2017,03,30,08,11,4.80
2017,03,30,08,12,4.80
2017,03,30,08,13,4.80
2017,03,30,08,14,4.80
2017,03,30,08,15,4.80
2017,03,30,08,16,4.80
2017,03,30,08,17,4.80
2017,03,30,08,18,4.80
2017,03,30,08,19,4.70
2017,03,30,08,20,4.70
2017,03,30,08,21,4.80
2017,03,30,08,22,4.80
2017,03,30,08,23,4.80
2017,03,30,08,24,4.80
2017,03,30,08,25,4.80
2017,03,30,08,26,4.80
2017,03,30,08,27,4.80
2017,03,30,08,28,4.80
2017,03,30,08,29,4.80
2017,03,30,08,30,4.80
2017,03,30,08,31,4.80
2017,03,30,08,32,4.80
2017,03,30,08,33,4.80
2017,03,30,08,34,4.80
2017,03,30,08,35,4.90
2017,03,30,08,36,4.90
2017,03,30,08,37,4.90
2017,03,30,08,38,4.90
2017,03,30,08,39,4.90
2017,03,30,08,40,4.90
2017,03,30,08,41,4.90
2017,03,30,08,42,4.90
2017,03,30,08,43,4.90
2017,03,30,08,44,4.90
2017,03,30,08,45,4.80
2017,03,30,08,46,4.80
2017,03,30,08,47,4.80
2017,03,30,08,48,4.80
2017,03,30,08,49,4.80
2017,03,30,08,50,4.80
2017,03,30,08,51,4.80
2017,03,30,08,52,4.80
2017,03,30,08,53,4.80
2017,03,30,08,54,4.80
2017,03,30,08,55,4.80
2017,03,30,08,56,4.90
2017,03,30,08,57,4.90
2017,03,30,08,58,4.90
2017,03,30,08,59,4.90
2017,03,30,09,00,4.90
2017,03,30,09,01,4.90
2017,03,30,09,02,4.90
2017,03,30,09,03,4.90
2017,03,30,09,04,4.90
2017,03,30,09,05,4.90
2017,03,30,09,06,4.90
2017,03,30,09,07,4.90
2017,03,30,09,08,4.90
2017,03,30,09,09,4.90
2017,03,30,09,10,5.00
2017,03,30,09,11,5.00
2017,03,30,09,12,5.10
2017,03,30,09,13,5.10
2017,03,30,09,14,5.10
2017,03,30,09,15,5.20
2017,03,30,09,16,5.20
2017,03,30,09,17,5.30
2017,03,30,09,18,5.30
2017,03,30,09,19,5.40
2017,03,30,09,20,5.40
2017,03,30,09,21,5.40
2017,03,30,09,22,5.40
2017,03,30,09,23,5.40
2017,03,30,09,24,5.40
2017,03,30,09,25,5.40
2017,03,30,09,26,5.40
2017,03,30,09,27,5.40
2017,03,30,09,28,5.40
2017,03,30,09,29,5.40
2017,03,30,09,30,5.40
2017,03,30,09,31,5.40
2017,03,30,09,32,5.50
2017,03,30,09,33,5.50
2017,03,30,09,34,5.60
2017,03,30,09,35,5.50
2017,03,30,09,36,5.50
2017,03,30,09,37,5.40
2017,03,30,09,38,5.40
2017,03,30,09,39,5.40
2017,03,30,09,40,5.40
2017,03,30,09,41,5.50
2017,03,30,09,42,5.50
2017,03,30,09,43,5.60
2017,03,30,09,44,5.70
2017,03,30,09,45,5.70
2017,03,30,09,46,5.70
2017,03,30,09,47,5.70
2017,03,30,09,48,5.80
2017,03,30,09,49,5.80
2017,03,30,09,50,5.80
2017,03,30,09,51,5.90
2017,03,30,09,52,5.90
2017,03,30,09,53,5.90
2017,03,30,09,54,5.90
2017,03,30,09,55,5.90
2017,03,30,09,56,5.90
2017,03,30,09,57,5.90
2017,03,30,09,58,5.90
2017,03,30,09,59,6.00
2017,03,30,10,00,6.00
2017,03,30,10,01,6.10
2017,03,30,10,02,6.10
2017,03,30,10,03,6.10
2017,03,30,10,04,6.10
2017,03,30,10,05,6.10
2017,03,30,10,06,6.10
2017,03,30,10,07,6.10
2017,03,30,10,08,6.20
2017,03,30,10,09,6.20
2017,03,30,10,10,6.30
2017,03,30,10,11,6.40
2017,03,30,10,12,6.50
2017,03,30,10,13,6.60
2017,03,30,10,14,6.60
2017,03,30,10,15,6.70
2017,03,30,10,16,6.70
2017,03,30,10,17,6.80
2017,03,30,10,18,6.80
2017,03,30,10,19,6.80
2017,03,30,10,20,6.80
2017,03,30,10,21,6.90
2017,03,30,10,22,7.00
2017,03,30,10,23,7.10
2017,03,30,10,24,7.10
2017,03,30,10,25,7.20
2017,03,30,10,26,7.30
2017,03,30,10,27,7.30
2017,03,30,10,28,7.30
2017,03,30,10,29,7.40
2017,03,30,10,30,7.50
2017,03,30,10,31,7.50
2017,03,30,10,32,7.60
2017,03,30,10,33,7.70
2017,03,30,10,34,7.80
2017,03,30,10,35,7.80
2017,03,30,10,36,7.90
2017,03,30,10,37,7.90
2017,03,30,10,38,8.00
2017,03,30,10,39,8.00
2017,03,30,10,40,8.10
2017,03,30,10,41,8.20
2017,03,30,10,42,8.30
2017,03,30,10,43,8.40
2017,03,30,10,44,8.50
2017,03,30,10,45,8.70
2017,03,30,10,46,8.80
2017,03,30,10,47,8.90
2017,03,30,10,48,9.00
2017,03,30,10,49,9.20
2017,03,30,10,50,9.30
2017,03,30,10,51,9.40
2017,03,30,10,52,9.50
2017,03,30,10,53,9.50
2017,03,30,10,54,9.50
2017,03,30,10,55,9.50
2017,03,30,10,56,9.60
2017,03,30,10,57,9.60
2017,03,30,10,58,9.70
2017,03,30,10,59,9.70
2017,03,30,11,00,9.70
2017,03,30,11,01,9.80
2017,03,30,11,02,9.80
2017,03,30,11,03,9.90
2017,03,30,11,04,9.90
2017,03,30,11,05,10.00
2017,03,30,11,06,10.00
2017,03,30,11,07,10.10
2017,03,30,11,08,10.20
2017,03,30,11,09,10.30
2017,03,30,11,10,10.40
2017,03,30,11,11,10.50
2017,03,30,11,12,10.60
2017,03,30,11,13,10.70
2017,03,30,11,14,10.80
2017,03,30,11,15,10.90
2017,03,30,11,16,10.90
2017,03,30,11,17,10.90
2017,03,30,11,18,10.90
2017,03,30,11,19,10.80
2017,03,30,11,20,10.80
2017,03,30,11,21,10.80
2017,03,30,11,22,10.80
2017,03,30,11,23,10.70
2017,03,30,11,24,10.70
2017,03,30,11,25,10.70
2017,03,30,11,26,10.70
2017,03,30,11,27,10.70
2017,03,30,11,28,10.70
2017,03,30,11,29,10.70
2017,03,30,11,30,10.70
2017,03,30,11,31,10.70
2017,03,30,11,32,10.80
2017,03,30,11,33,10.80
2017,03,30,11,34,10.80
2017,03,30,11,35,10.80
2017,03,30,11,36,10.90
2017,03,30,11,37,10.90
2017,03,30,11,38,10.90
2017,03,30,11,39,11.00
2017,03,30,11,40,11.00
2017,03,30,11,41,11.10
2017,03,30,11,42,11.00
2017,03,30,11,43,11.00
2017,03,30,11,44,10.90
2017,03,30,11,45,10.80
2017,03,30,11,46,10.80
2017,03,30,11,47,10.80
2017,03,30,11,48,10.80
2017,03,30,11,49,10.80
2017,03,30,11,50,10.90
2017,03,30,11,51,11.00
2017,03,30,11,52,11.10
2017,03,30,11,53,11.20
2017,03,30,11,54,11.30
2017,03,30,11,55,11.40
2017,03,30,11,56,11.50
2017,03,30,11,57,11.60
2017,03,30,11,58,11.60
2017,03,30,11,59,11.60
2017,03,30,12,00,11.60
2017,03,30,12,01,11.60
2017,03,30,12,02,11.60
2017,03,30,12,03,11.70
2017,03,30,12,04,11.70
2017,03,30,12,05,11.70
2017,03,30,12,06,11.70
2017,03,30,12,07,11.70
2017,03,30,12,08,11.80
2017,03,30,12,09,11.80
2017,03,30,12,10,11.80
2017,03,30,12,11,11.80
2017,03,30,12,12,11.90
2017,03,30,12,13,11.90
2017,03,30,12,14,11.90
2017,03,30,12,15,12.00
2017,03,30,12,16,12.00
2017,03,30,12,17,12.00
2017,03,30,12,18,12.10
2017,03,30,12,19,12.10
2017,03,30,12,20,12.10
2017,03,30,12,21,12.20
2017,03,30,12,22,12.30
2017,03,30,12,23,12.40
2017,03,30,12,24,12.40
2017,03,30,12,25,12.40
2017,03,30,12,26,12.40
2017,03,30,12,27,12.30
2017,03,30,12,28,12.30
2017,03,30,12,29,12.30
2017,03,30,12,30,12.30
2017,03,30,12,31,12.30
2017,03,30,12,32,12.30
2017,03,30,12,33,12.30
2017,03,30,12,34,12.30
2017,03,30,12,35,12.30
2017,03,30,12,36,12.20
2017,03,30,12,37,12.20
2017,03,30,12,38,12.20
2017,03,30,12,39,12.20
2017,03,30,12,40,12.20
2017,03,30,12,41,12.20
2017,03,30,12,42,12.20
2017,03,30,12,43,12.20
2017,03,30,12,44,12.20
2017,03,30,12,45,12.10
2017,03,30,12,46,11.90
2017,03,30,12,47,11.80
2017,03,30,12,48,11.70
2017,03,30,12,49,11.70
2017,03,30,12,50,11.70
2017,03,30,12,51,11.70
2017,03,30,12,52,11.70
2017,03,30,12,53,11.70
2017,03,30,12,54,11.70
2017,03,30,12,55,11.70
2017,03,30,12,56,11.70
2017,03,30,12,57,11.70
2017,03,30,12,58,11.80
2017,03,30,12,59,11.80
2017,03,30,13,00,11.80
2017,03,30,13,01,11.80
2017,03,30,13,02,11.80
2017,03,30,13,03,11.80
2017,03,30,13,04,11.80
2017,03,30,13,05,11.80
2017,03,30,13,06,11.80
2017,03,30,13,07,11.80
2017,03,30,13,08,11.90
2017,03,30,13,09,11.90
2017,03,30,13,10,11.90
2017,03,30,13,11,11.90
2017,03,30,13,12,11.90
2017,03,30,13,13,11.80
2017,03,30,13,14,11.90
2017,03,30,13,15,11.90
2017,03,30,13,16,11.90
2017,03,30,13,17,11.90
2017,03,30,13,18,11.90
2017,03,30,13,19,12.00
2017,03,30,13,20,12.00
2017,03,30,13,21,11.90
2017,03,30,13,22,11.90
2017,03,30,13,23,11.90
2017,03,30,13,24,12.00
2017,03,30,13,25,12.00
2017,03,30,13,26,12.10
2017,03,30,13,27,12.10
2017,03,30,13,28,12.10
2017,03,30,13,29,12.10
2017,03,30,13,30,12.10
2017,03,30,13,31,12.10
2017,03,30,13,32,12.00
2017,03,30,13,33,12.00
2017,03,30,13,34,12.00
2017,03,30,13,35,12.10
2017,03,30,13,36,12.10
2017,03,30,13,37,12.20
2017,03,30,13,38,12.20
2017,03,30,13,39,12.20
2017,03,30,13,40,12.20
2017,03,30,13,41,12.20
2017,03,30,13,42,12.20
2017,03,30,13,43,12.10
2017,03,30,13,44,12.10
2017,03,30,13,45,12.00
2017,03,30,13,46,12.00
2017,03,30,13,47,12.00
2017,03,30,13,48,12.10
2017,03,30,13,49,12.10
2017,03,30,13,50,12.10
2017,03,30,13,51,12.10
2017,03,30,13,52,12.10
2017,03,30,13,53,12.20
2017,03,30,13,54,12.20
2017,03,30,13,55,12.30
2017,03,30,13,56,12.40
2017,03,30,13,57,12.40
2017,03,30,13,58,12.40
2017,03,30,13,59,12.40
2017,03,30,14,00,12.30
2017,03,30,14,01,12.20
2017,03,30,14,02,12.20
2017,03,30,14,03,12.10
2017,03,30,14,04,12.10
2017,03,30,14,05,12.10
2017,03,30,14,06,12.10
2017,03,30,14,07,12.10
2017,03,30,14,08,12.20
2017,03,30,14,09,12.20
2017,03,30,14,10,12.30
2017,03,30,14,11,12.30
2017,03,30,14,12,12.30
2017,03,30,14,13,12.30
2017,03,30,14,14,12.30
2017,03,30,14,15,12.40
2017,03,30,14,16,12.40
2017,03,30,14,17,12.40
2017,03,30,14,18,12.50
2017,03,30,14,19,12.50
2017,03,30,14,20,12.50
2017,03,30,14,21,12.60
2017,03,30,14,22,12.60
2017,03,30,14,23,12.60
2017,03,30,14,24,12.70
2017,03,30,14,25,12.70
2017,03,30,14,26,12.70
2017,03,30,14,27,12.70
2017,03,30,14,28,12.70
2017,03,30,14,29,12.70
2017,03,30,14,30,12.60
2017,03,30,14,31,12.60
2017,03,30,14,32,12.60
2017,03,30,14,33,12.60
2017,03,30,14,34,12.50
2017,03,30,14,35,12.50
2017,03,30,14,36,12.40
2017,03,30,14,37,12.50
2017,03,30,14,38,12.60
2017,03,30,14,39,12.70
2017,03,30,14,40,12.70
2017,03,30,14,41,12.60
2017,03,30,14,42,12.60
2017,03,30,14,43,12.70
2017,03,30,14,44,12.70
2017,03,30,14,45,12.70
2017,03,30,14,46,12.70
2017,03,30,14,47,12.80
2017,03,30,14,48,12.90
2017,03,30,14,49,12.80
2017,03,30,14,50,12.80
2017,03,30,14,51,12.70
2017,03,30,14,52,12.80
2017,03,30,14,53,12.70
2017,03,30,14,54,12.70
2017,03,30,14,55,12.70
2017,03,30,14,56,12.70
2017,03,30,14,57,12.70
2017,03,30,14,58,12.80
2017,03,30,14,59,12.80
2017,03,30,15,00,12.90
2017,03,30,15,01,13.00
2017,03,30,15,02,13.00
2017,03,30,15,03,13.10
2017,03,30,15,04,13.10
2017,03,30,15,05,13.10
2017,03,30,15,06,13.10
2017,03,30,15,07,13.20
2017,03,30,15,08,13.20
2017,03,30,15,09,13.20
2017,03,30,15,10,13.20
2017,03,30,15,11,13.10
2017,03,30,15,12,13.10
2017,03,30,15,13,13.00
2017,03,30,15,14,13.00
2017,03,30,15,15,12.90
2017,03,30,15,16,12.90
2017,03,30,15,17,12.90
2017,03,30,15,18,12.80
2017,03,30,15,19,12.90
2017,03,30,15,20,12.90
2017,03,30,15,21,12.90
2017,03,30,15,22,12.80
2017,03,30,15,23,12.70
2017,03,30,15,24,12.70
2017,03,30,15,25,12.70
2017,03,30,15,26,12.70
2017,03,30,15,27,12.70
2017,03,30,15,28,12.60
2017,03,30,15,29,12.50
2017,03,30,15,30,12.40
2017,03,30,15,31,12.30
2017,03,30,15,32,12.30
2017,03,30,15,33,12.20
2017,03,30,15,34,12.20
2017,03,30,15,35,12.10
2017,03,30,15,36,12.10
2017,03,30,15,37,12.10
2017,03,30,15,38,12.10
2017,03,30,15,39,12.20
2017,03,30,15,40,12.20
2017,03,30,15,41,12.20
2017,03,30,15,42,12.30
2017,03,30,15,43,12.30
2017,03,30,15,44,12.40
2017,03,30,15,45,12.40
2017,03,30,15,46,12.30
2017,03,30,15,47,12.30
2017,03,30,15,48,12.30
2017,03,30,15,49,12.20
2017,03,30,15,50,12.20
2017,03,30,15,51,12.20
2017,03,30,15,52,12.20
2017,03,30,15,53,12.20
2017,03,30,15,54,12.20
2017,03,30,15,55,12.20
2017,03,30,15,56,12.20
2017,03,30,15,57,12.20
2017,03,30,15,58,12.30
2017,03,30,15,59,12.30
2017,03,30,16,00,12.30
2017,03,30,16,01,12.30
2017,03,30,16,02,12.40
2017,03,30,16,03,12.50
2017,03,30,16,04,12.60
2017,03,30,16,05,12.70
2017,03,30,16,06,12.70
2017,03,30,16,07,12.80
2017,03,30,16,08,12.90
2017,03,30,16,09,12.90
2017,03,30,16,10,12.80
2017,03,30,16,11,12.90
2017,03,30,16,12,12.90
2017,03,30,16,13,12.90
2017,03,30,16,14,12.90
2017,03,30,16,15,12.90
2017,03,30,16,16,12.90
2017,03,30,16,17,12.80
2017,03,30,16,18,12.70
2017,03,30,16,19,12.70
2017,03,30,16,20,12.70
2017,03,30,16,21,12.60
2017,03,30,16,22,12.60
2017,03,30,16,23,12.60
2017,03,30,16,24,12.60
2017,03,30,16,25,12.60
2017,03,30,16,26,12.60
2017,03,30,16,27,12.70
2017,03,30,16,28,12.70
2017,03,30,16,29,12.70
2017,03,30,16,30,12.60
2017,03,30,16,31,12.60
2017,03,30,16,32,12.60
2017,03,30,16,33,12.70
2017,03,30,16,34,12.70
2017,03,30,16,35,12.70
2017,03,30,16,36,12.70
2017,03,30,16,37,12.70
2017,03,30,16,38,12.70
2017,03,30,16,39,12.70
2017,03,30,16,40,12.70
2017,03,30,16,41,12.70
2017,03,30,16,42,12.70
2017,03,30,16,43,12.60
2017,03,30,16,44,12.50
2017,03,30,16,45,12.40
2017,03,30,16,46,12.40
2017,03,30,16,47,12.30
2017,03,30,16,48,12.20
2017,03,30,16,49,12.20
2017,03,30,16,50,12.10
2017,03,30,16,51,12.10
2017,03,30,16,52,12.10
2017,03,30,16,53,12.20
2017,03,30,16,54,12.20
2017,03,30,16,55,12.20
2017,03,30,16,56,12.40
2017,03,30,16,57,12.50
2017,03,30,16,58,12.50
2017,03,30,16,59,12.60
2017,03,30,17,00,12.60
2017,03,30,17,01,12.60
2017,03,30,17,02,12.60
2017,03,30,17,03,12.60
2017,03,30,17,04,12.60
2017,03,30,17,05,12.60
2017,03,30,17,06,12.60
2017,03,30,17,07,12.70
2017,03,30,17,08,12.70
2017,03,30,17,09,12.70
2017,03,30,17,10,12.70
2017,03,30,17,11,12.70
2017,03,30,17,12,12.70
2017,03,30,17,13,12.60
2017,03,30,17,14,12.60
2017,03,30,17,15,12.50
2017,03,30,17,16,12.50
2017,03,30,17,17,12.40
2017,03,30,17,18,12.40
2017,03,30,17,19,12.40
2017,03,30,17,20,12.40
2017,03,30,17,21,12.40
2017,03,30,17,22,12.30
2017,03,30,17,23,12.30
2017,03,30,17,24,12.30
2017,03,30,17,25,12.30
2017,03,30,17,26,12.20
2017,03,30,17,27,12.10
2017,03,30,17,28,12.10
2017,03,30,17,29,12.00
2017,03,30,17,30,12.00
2017,03,30,17,31,11.90
2017,03,30,17,32,11.90
2017,03,30,17,33,11.80
2017,03,30,17,34,11.80
2017,03,30,17,35,11.80
2017,03,30,17,36,11.70
2017,03,30,17,37,11.70
2017,03,30,17,38,11.60
2017,03,30,17,39,11.50
2017,03,30,17,40,11.50
2017,03,30,17,41,11.50
2017,03,30,17,42,11.50
2017,03,30,17,43,11.50
2017,03,30,17,44,11.50
2017,03,30,17,45,11.50
2017,03,30,17,46,11.50
2017,03,30,17,47,11.50
2017,03,30,17,48,11.50